User: anonymous   Login
Location: Writing-on-Stone Provincial Park
(49.0825°N, 111.6163°W)
Time: 17:19:26
(UTC-07:00)
Language:

BREEZE-M DEB (TANK) - Orbit

View from above orbital plane
View from above orbital plane
View from above satellite
View from above satellite

Ground track
Ground track

The orbit data is extracted from the following two-line orbital elements,

1 29649U 06056B   16336.53847256  .00001547  00000-0  37435-3 0  9998
2 29649  49.5195  18.1736 5376798  38.1163 349.8994  4.99054432177896
Epoch (UTC): 01 December 2016 12:55:24
Eccentricity: 0.5376798
inclination: 49.5195°
perigee height: 309 km
apogee height: 15863 km
right ascension of ascending node: 18.1736°
argument of perigee: 38.1163°
revolutions per day: 4.99054432
mean anomaly at epoch: 349.8994°
orbit number at epoch: 17789

The dashed part of the orbit path shows where the satellite is in the earth's shadow,  

DLR